GW5165 Weather Reports


time (UTC)temp
C
wind
direction
speed
KPH
gust
KPH
rain 1hr
cm
rain 24hr
cm
rain mn
cm
humidity
%
barometer
mb
20260504130707 13 262 19.3 25.7 0.00 0.00 0.00 49 999.7
20260504130203 13 257 14.5 17.7 0.00 0.00 0.00 50 999.9
20260504120127 10 289 4.8 6.4 0.00 0.00 0.00 56 1000.1
20260504110554 10 249 6.4 6.4 0.00 0.00 0.00 55 1000.2
20260504100516 10 262 6.4 6.4 0.00 0.00 0.00 54 1000.8
20260504081909 11 234 3.2 4.8 0.00 0.00 0.00 49 1001.8
20260504081406 11 176 1.6 1.6 0.00 0.00 0.00 49 1002.1
20260504080902 11 231 6.4 9.7 0.00 0.00 0.00 49 1002.3
20260504080359 11 212 8.0 9.7 0.00 0.00 0.00 49 1002.5
20260504070326 11 100 3.2 3.2 0.00 0.00 0.00 46 1003.0
20260504060247 12 241 1.6 1.6 0.00 0.00 0.00 45 1004.0
20260504050715 12 262 3.2 3.2 0.00 0.00 0.00 43 1004.8
20260504050212 12 182 1.6 3.2 0.00 0.00 0.00 43 1004.6
20260504045710 12 156 0.0 1.6 0.00 0.00 0.00 43 1004.9
20260504045209 13 306 1.6 1.6 0.00 0.00 0.00 42 1004.9
20260504044707 13 265 3.2 4.8 0.00 0.00 0.00 42 1005.0
20260504044204 13 206 4.8 6.4 0.00 0.00 0.00 41 1005.1
20260504043701 13 265 3.2 3.2 0.00 0.00 0.00 41 1005.2
20260504043158 13 154 1.6 1.6 0.00 0.00 0.00 41 1005.1
20260504042655 13 255 3.2 3.2 0.00 0.00 0.00 40 1005.3
20260504042152 13 58 4.8 6.4 0.00 0.00 0.00 40 1005.4
20260504041648 13 239 3.2 3.2 0.00 0.00 0.00 40 1005.5
20260504041144 14 260 3.2 3.2 0.00 0.00 0.00 39 1005.4
20260504040641 14 303 0.0 1.6 0.00 0.00 0.00 39 1005.7
20260504040138 14 239 0.0 1.6 0.00 0.00 0.00 39 1005.8
20260504035634 15 210 0.0 1.6 0.00 0.00 0.00 38 1005.6
20260504035131 15 254 1.6 1.6 0.00 0.00 0.00 38 1005.7
20260504034629 15 216 1.6 1.6 0.00 0.00 0.00 37 1005.9
20260504034126 15 277 3.2 3.2 0.00 0.00 0.00 37 1005.9
20260504033624 15 241 3.2 3.2 0.00 0.00 0.00 36 1006.0
20260504033121 16 229 3.2 3.2 0.00 0.00 0.00 35 1005.9
20260504032618 16 125 1.6 1.6 0.00 0.00 0.00 34 1005.9
20260504032114 16 238 3.2 4.8 0.00 0.00 0.00 34 1006.1
20260504031612 16 213 1.6 3.2 0.00 0.00 0.00 34 1006.1
20260504031108 16 217 1.6 1.6 0.00 0.00 0.00 35 1006.1
20260504030605 16 243 3.2 3.2 0.00 0.00 0.00 36 1006.0
20260504030101 16 272 1.6 1.6 0.00 0.00 0.00 36 1006.0
20260504025558 15 228 3.2 3.2 0.00 0.00 0.00 36 1006.1
20260504025055 15 267 3.2 3.2 0.00 0.00 0.00 36 1006.2
20260504024552 15 210 0.0 1.6 0.00 0.00 0.00 36 1006.2
20260504024049 16 205 0.0 0.0 0.00 0.00 0.00 35 1006.0
20260504023545 16 122 0.0 0.0 0.00 0.00 0.00 35 1006.1
20260504023041 16 174 0.0 0.0 0.00 0.00 0.00 35 1006.1
20260504022537 16 157 0.0 0.0 0.00 0.00 0.00 34 1006.2
20260504022034 16 200 0.0 0.0 0.00 0.00 0.00 35 1006.1
20260504021532 16 127 0.0 0.0 0.00 0.00 0.00 35 1005.9
20260504021028 16 148 0.0 0.0 0.00 0.00 0.00 34 1006.1
20260504020525 16 161 0.0 0.0 0.00 0.00 0.00 34 1006.2
20260504020022 17 159 0.0 0.0 0.00 0.00 0.00 34 1006.3
20260504015518 17 156 0.0 0.0 0.00 0.00 0.00 33 1006.1
20260504015014 17 157 0.0 0.0 0.00 0.00 0.00 32 1006.2
20260504014510 17 179 1.6 1.6 0.00 0.00 0.00 31 1006.2
20260504014008 18 181 0.0 0.0 0.00 0.00 0.00 31 1006.0
20260504013506 18 347 1.6 1.6 0.00 0.00 0.00 30 1006.1
20260504013001 18 350 0.0 0.0 0.00 0.00 0.00 30 1006.1
20260504012500 18 162 1.6 1.6 0.00 0.00 0.00 29 1006.1
20260504011957 18 249 1.6 1.6 0.00 0.00 0.00 29 1006.1
20260504011453 18 261 1.6 1.6 0.00 0.00 0.00 29 1006.2
20260504010949 19 283 4.8 4.8 0.00 0.00 0.00 29 1006.1
20260504010446 19 287 3.2 3.2 0.00 0.00 0.00 28 1006.2
20260504005942 20 339 1.6 3.2 0.00 0.00 0.00 28 1006.3
20260504005439 20 239 3.2 3.2 0.00 0.00 0.00 27 1006.1
20260504004936 20 247 4.8 4.8 0.00 0.00 0.00 27 1006.2
20260504004434 20 279 6.4 6.4 0.00 0.00 0.00 26 1006.4
20260504003930 20 319 4.8 4.8 0.00 0.00 0.00 26 1006.3
20260504003427 21 277 6.4 6.4 0.00 0.00 0.00 26 1006.3
20260504002923 21 272 6.4 6.4 0.00 0.00 0.00 26 1006.3
20260504002420 21 299 3.2 4.8 0.00 0.00 0.00 25 1006.5
20260504001918 21 274 6.4 6.4 0.00 0.00 0.00 24 1006.3
20260504001416 21 308 6.4 6.4 0.00 0.00 0.00 24 1006.3
20260504000912 21 295 11.3 14.5 0.00 0.00 0.00 24 1006.4
20260504000409 21 332 4.8 6.4 0.00 0.00 0.00 25 1006.5
20260503235906 21 276 4.8 6.4 0.00 0.00 0.00 26 1006.5
20260503235404 21 260 6.4 11.3 0.00 0.00 0.00 25 1006.3
20260503234901 21 267 11.3 14.5 0.00 0.00 0.00 25 1006.4
20260503234359 21 267 9.7 11.3 0.00 0.00 0.00 25 1006.6
20260503233856 21 282 16.1 17.7 0.00 0.00 0.00 24 1006.4
20260503233353 21 273 14.5 16.1 0.00 0.00 0.00 25 1006.4
20260503232849 21 278 9.7 12.9 0.00 0.00 0.00 25 1006.6
20260503232347 21 297 12.9 16.1 0.00 0.00 0.00 25 1006.5
20260503231845 22 317 9.7 11.3 0.00 0.00 0.00 24 1006.6
20260503231342 22 325 6.4 9.7 0.00 0.00 0.00 26 1006.5
20260503230838 22 356 9.7 14.5 0.00 0.00 0.00 26 1006.6
20260503230335 21 246 6.4 9.7 0.00 0.00 0.00 25 1006.7
20260503225833 22 353 6.4 11.3 0.00 0.00 0.00 26 1006.5
20260503225328 22 324 6.4 9.7 0.00 0.00 0.00 25 1006.6
20260503224824 22 326 14.5 17.7 0.00 0.00 0.00 25 1006.7
20260503224321 21 251 6.4 9.7 0.00 0.00 0.00 25 1006.5
20260503223819 22 236 12.9 14.5 0.00 0.00 0.00 25 1006.7
20260503223317 21 320 8.0 14.5 0.00 0.00 0.00 26 1006.5
20260503222812 22 358 9.7 12.9 0.00 0.00 0.00 26 1006.6
20260503222311 21 272 8.0 9.7 0.00 0.00 0.00 26 1006.4
20260503221809 22 319 12.9 14.5 0.00 0.00 0.00 26 1006.7
20260503221307 21 343 8.0 12.9 0.00 0.00 0.00 26 1006.5
20260503220802 21 315 11.3 20.9 0.00 0.00 0.00 26 1006.7
20260503220259 21 268 6.4 9.7 0.00 0.00 0.00 27 1006.6
20260503215756 21 292 14.5 20.9 0.00 0.00 0.00 26 1006.7
20260503215253 21 282 8.0 11.3 0.00 0.00 0.00 26 1006.9
20260503214751 21 283 14.5 20.9 0.00 0.00 0.00 26 1006.7
20260503214248 21 343 16.1 27.4 0.00 0.00 0.00 26 1006.8
20260503213746 21 326 19.3 22.5 0.00 0.00 0.00 27 1006.7
20260503213243 21 304 11.3 17.7 0.00 0.00 0.00 27 1006.8
20260503212739 21 231 12.9 17.7 0.00 0.00 0.00 26 1006.8
20260503212237 21 299 11.3 14.5 0.00 0.00 0.00 26 1007.0
20260503211735 21 316 14.5 17.7 0.00 0.00 0.00 26 1006.9
20260503211231 21 341 12.9 16.1 0.00 0.00 0.00 26 1007.0
20260503210726 21 320 14.5 17.7 0.00 0.00 0.00 26 1007.0
20260503210224 21 276 19.3 24.1 0.00 0.00 0.00 25 1007.0
20260503205719 21 237 8.0 9.7 0.00 0.00 0.00 26 1006.8
20260503205216 21 292 19.3 24.1 0.00 0.00 0.00 26 1007.0
20260503204712 21 308 11.3 17.7 0.00 0.00 0.00 27 1007.0
20260503204210 22 276 19.3 29.0 0.00 0.00 0.00 26 1007.3
20260503203707 21 282 6.4 9.7 0.00 0.00 0.00 27 1007.1
20260503203205 21 292 12.9 14.5 0.00 0.00 0.00 26 1007.2
20260503202701 21 290 8.0 12.9 0.00 0.00 0.00 27 1007.2
20260503202159 22 272 11.3 16.1 0.00 0.00 0.00 26 1007.6
20260503201657 22 330 11.3 16.1 0.00 0.00 0.00 27 1007.6
20260503201154 21 224 11.3 12.9 0.00 0.00 0.00 29 1007.3
20260503200650 22 286 11.3 14.5 0.00 0.00 0.00 28 1007.2
20260503200147 21 292 6.4 11.3 0.00 0.00 0.00 29 1007.3
20260503195644 21 252 11.3 14.5 0.00 0.00 0.00 29 1007.2
20260503195141 21 285 8.0 9.7 0.00 0.00 0.00 30 1007.5
20260503194638 21 269 11.3 17.7 0.00 0.00 0.00 31 1007.2
20260503194133 21 265 9.7 11.3 0.00 0.00 0.00 29 1007.3
20260503193630 21 331 9.7 24.1 0.00 0.00 0.00 29 1007.3
20260503193126 21 347 9.7 12.9 0.00 0.00 0.00 29 1007.5
20260503192622 21 2 14.5 20.9 0.00 0.00 0.00 30 1007.5
20260503192117 21 276 14.5 24.1 0.00 0.00 0.00 29 1007.2
20260503191615 21 314 14.5 20.9 0.00 0.00 0.00 29 1007.5
20260503191111 21 339 14.5 17.7 0.00 0.00 0.00 31 1007.7
20260503190609 21 4 11.3 17.7 0.00 0.00 0.00 31 1007.5
20260503190106 21 317 12.9 22.5 0.00 0.00 0.00 29 1007.7
20260503185602 21 63 8.0 12.9 0.00 0.00 0.00 30 1007.6
20260503185102 21 347 4.8 9.7 0.00 0.00 0.00 29 1007.5
20260503184557 20 252 6.4 11.3 0.00 0.00 0.00 31 1007.5
20260503184054 20 280 20.9 25.7 0.00 0.00 0.00 30 1007.8
20260503183551 20 32 14.5 16.1 0.00 0.00 0.00 30 1007.7
20260503183048 20 15 6.4 17.7 0.00 0.00 0.00 31 1007.7
20260503182546 21 321 8.0 14.5 0.00 0.00 0.00 31 1007.7
20260503182044 21 124 9.7 17.7 0.00 0.00 0.00 31 1007.9
20260503181541 20 311 6.4 9.7 0.00 0.00 0.00 32 1007.8
20260503181037 20 313 11.3 14.5 0.00 0.00 0.00 32 1007.7
20260503180535 20 14 6.4 12.9 0.00 0.00 0.00 29 1007.9
20260503180032 20 316 16.1 22.5 0.00 0.00 0.00 29 1008.0
20260503175529 20 9 12.9 16.1 0.00 0.00 0.00 30 1008.0
20260503175026 20 273 17.7 22.5 0.00 0.00 0.00 30 1007.8
20260503174524 20 322 14.5 24.1 0.00 0.00 0.00 31 1008.0
20260503174020 20 305 12.9 20.9 0.00 0.00 0.00 31 1008.0
20260503173515 20 288 9.7 12.9 0.00 0.00 0.00 33 1007.9
20260503173011 20 0 20.9 27.4 0.00 0.00 0.00 33 1007.9
20260503172509 20 337 17.7 20.9 0.00 0.00 0.00 34 1008.1
20260503172006 20 343 12.9 17.7 0.00 0.00 0.00 35 1007.9
20260503171502 20 226 11.3 17.7 0.00 0.00 0.00 34 1008.1
20260503171000 20 320 20.9 25.7 0.00 0.00 0.00 34 1008.2
20260503170456 19 38 4.8 4.8 0.00 0.00 0.00 35 1007.9
20260503150848 15 274 14.5 17.7 0.00 0.00 0.00 45 1007.7
20260503150344 15 333 12.9 17.7 0.00 0.00 0.00 45 1007.7
20260503140309 13 325 11.3 12.9 0.00 0.00 0.00 48 1007.2